Regional Weather Roundup
Issued by NWS Goodland, KS

Home | Current Version | Previous Version | Text Only | Print | Product List | Glossary Off
Versions: 1 2 3 4 5 6 7 8 9 10 11 12 13 14 15 16 17 18 19 20 21 22 23 24 25 26 27 28 29 30 31 32 33 34 35 36 37 38 39 40 41 42 43 44 45 46 47 48 49 50

000
ASUS43 KGLD 211559
RWRGLD

GOODLAND FORECAST AREA HOURLY WEATHER ROUNDUP
NATIONAL WEATHER SERVICE GOODLAND KS
1000 AM MDT SUN SEP 21 2014

...OFFICIAL OBSERVATIONS...

CITY           SKY/WX    TMP DP  RH WIND       PRES   REMARKS
GOODLAND KS    PTSUNNY   65  43  44 NE5       30.39R
HILL CITY KS   MOSUNNY   71  42  35 NE8       30.32R
IMPERIAL NEB   SUNNY     68  35  29 NE8       30.38R
MCCOOK NEB     PTSUNNY   69  40  34 NE9       30.35R
AKRON CO       CLOUDY    63  38  39 SE16      30.40S
BURLINGTON CO  PTSUNNY   64  36  35 E10       30.40S
LIMON CO       CLOUDY    63  38  39 SE15G23   30.43F
$$

...UNOFFICIAL OBSERVATIONS...

CITY           SKY/WX    TMP DP  RH WIND       PRES   REMARKS
COLBY KS       SUNNY     66  45  45 NE9       30.37S
GOVE KS          N/A     69  32  25 MISG        N/A
NORTON KS      SUNNY     70  36  28 NE9       30.31S
SHARON SPRINGS   N/A     67  44  43 NE6         N/A
WAKEENEY KS      N/A     69  39  34 MISG        N/A
TRENTON NEB      N/A     67  32  27 N8          N/A
KIT CARSON CO    N/A     63  38  39 NE7G14      N/A
$$



USA.gov is the U.S. government's official web portal to all federal, state and local government web resources and services.